Voltar ao catálogo

STARLINK-32374

AtivoComunicaçõesVLEO
NORAD 62145·PAYLOAD·🇺🇸 United States

Lançado Nov 30, 2024 de Cape Canaveral Space Force Station

Loading…

Próximas Passagens (próximas 24 horas)

TLE

AtualizadoSource: CelesTrak SupGP

Época: Sep 14, 2026, 20:52 UTC

1 62145C 24224G   26257.86993056 -.00025247  00000+0 -91437-3 0  2575
2 62145  43.0029 169.8155 0001132 264.1697  20.1746 15.27593351    17

Acompanhe STARLINK-32374 em tempo real com AllMySat

Download on the App Store